Regional Weather Roundup
Issued by NWS San Diego, CA

Home | Current Version | Previous Version | Text Only | Print | Product List | Glossary On
Versions: 1 2 3 4 5 6 7 8 9 10 11 12 13 14 15 16 17 18 19 20 21 22 23 24 25 26 27
000
ASUS46 KSGX 181511
RWRSGX

SAN DIEGO HOURLY WEATHER ROUNDUP
NATIONAL WEATHER SERVICE SAN DIEGO CA
700 AM PST WED JAN 18 2017

NOTE: "FAIR" INDICATES FEW OR NO CLOUDS BELOW 12,000 FEET WITH NO
SIGNIFICANT WEATHER AND/OR OBSTRUCTIONS TO VISIBILITY.

CAZ042-043-060-061-PZZ750-775-181600-

GREATER SAN DIEGO AREA

CITY           SKY/WX    TMP DP  RH WIND       PRES   REMARKS
SAN DIEGO AP   MOCLDY    51  42  71 E5        30.19R
NATIONAL CITY    N/A     47  44  88 CALM      30.18R
CHULA VISTA      N/A     45  43  92 CALM      30.10S
IMPERIAL BEACH MOCLDY    49  42  77 E8        30.18R
BROWN FIELD    PTCLDY    45  41  86 S8        30.16S
MIRAMAR MCAS   PTCLDY    47  41  80 E6        30.16S
MONTGOMERY FLD PTCLDY    47  42  83 E3        30.16S

$$

NORTH SAN DIEGO COUNTY

CITY           SKY/WX    TMP DP  RH WIND       PRES   REMARKS
CAMP PENDLETON PTCLDY    38  37  97 CALM      30.19R
OCEANSIDE AP   CLEAR     42  40  92 CALM      30.18R
VISTA            N/A     43  38  83 CALM      30.15S
CARLSBAD       PTCLDY    47  42  83 E5        30.16R
DEL MAR          N/A     49  47  93 E1        30.20R
LA JOLLA SCRIP   N/A     50  47  90 E9        30.17R
FALLBROOK        N/A     44  41  89 CALM      30.17R
ESCONDIDO        N/A     43  40  89 CALM      30.20R
SAN MARCOS       N/A     47  41  81 CALM      30.19R

$$

EAST SAN DIEGO COUNTY

CITY           SKY/WX    TMP DP  RH WIND       PRES   REMARKS
RAMONA         PTCLDY    33  32  96 W3        30.15S
SANTEE LAKES     N/A     41  39  93 CALM      30.18R
LA MESA          N/A     46  42  86 CALM      30.11S
JAMUL            N/A     40  38  93 CALM      30.18F
DESCANSO N       N/A     35  28  76 NE3       30.15F
CAMPO            N/A     31  29  92 CALM      30.13R

$$

ORANGE COUNTY AND THE LOS ANGELES BASIN

CITY           SKY/WX    TMP DP  RH WIND       PRES   REMARKS
JOHN WAYNE AP  MOCLDY    49  44  83 CALM      30.17R
LAGUNA BEACH     N/A     45  44  95 N3        30.12R
HUNTINGTON BCH   N/A     45  44  95 CALM      30.19R
LOS ALAMITOS   MOCLDY    47  43  87 NE5       30.17R
FULLERTON      CLOUDY    49  42  77 CALM      30.17S
LONG BEACH     MOCLDY    48  43  82 CALM      30.17S
L.A. AP        PTCLDY    49  43  80 E5        30.17S
L.A. DOWNTOWN  CLEAR     47  42  83 CALM      30.16S

$$

THE INLAND EMPIRE

CITY           SKY/WX    TMP DP  RH WIND       PRES   REMARKS
CORONA         CLEAR     33  31  92 CALM      30.18R
CHINO          PTCLDY    40  36  86 CALM      30.18R
ONTARIO        PTCLDY    42  33  70 CALM      30.16R
SAN BERNARDINO PTCLDY    37  32  81 CALM      30.17R
RIVERSIDE AP   PTCLDY    38  33  82 CALM      30.17R
MORENO VALLEY    N/A     42  39  89 CALM      28.26R
MARCH ARB      CLEAR     34  34 100 CALM      30.15R
HORSETHIEF CYN   N/A     40  34  77 CALM      30.18S
PERRIS           N/A     38  36  93 CALM      30.21R
HEMET EAST       N/A     43  25  49 CALM      30.21S
FRENCH VALLEY  NOT AVBL
TEMECULA         N/A     39  38  97 CALM      30.21F

$$

SAN BERNARDINO AND RIVERSIDE COUNTY MOUNTAINS

CITY           SKY/WX    TMP DP  RH WIND       PRES   REMARKS
BIG BEAR AP    PTCLDY    14  12  92 W5        30.16S WCI   6
ANGELUS OAKS     N/A     31  18  58 CALM      30.20S
PINE COVE        N/A     35  11  37 N5        30.19S WCI  31

$$

SOUTHERN DESERT INCLUDING THE COACHELLA VALLEY

CITY           SKY/WX    TMP DP  RH WIND       PRES   REMARKS
PALM SPRINGS   PTCLDY    44  35  70 N7        30.15S
PALM DESERT      N/A     41  35  79 CALM      30.86R
THERMAL        CLEAR     38  34  85 NW3       30.13S
BLYTHE         CLEAR     40  34  79 CALM      30.15S
IMPERIAL AP    CLEAR     42  36  79 W6        30.15R
EL CENTRO NAS  PTCLDY    41  35  79 W6        30.16R
YUMA AZ        PTCLDY    47  30  51 NE5       30.14
MEXICALI       CLEAR     45  34  65 CALM      30.15R

$$

UPPER DESERT

CITY           SKY/WX    TMP DP  RH WIND       PRES   REMARKS
VICTORVILLE AP CLEAR     37  23  56 CALM      30.11F
HESPERIA         N/A     37  26  66 CALM      30.32R
PALMDALE       CLEAR     31  28  89 VRB5      30.13R WCI  26
LANCASTER      CLEAR     28  26  92 W3        30.14R
EDWARDS AFB    PTCLDY    29  29 100 CALM      30.12R
DAGGETT          N/A     31  28  89 CALM      30.15R
29 PALMS N     PTCLDY    35  26  69 NW6       30.20F WCI  30
NEEDLES        CLEAR     40  28  62 W3        30.16R

$$

REGIONAL REPORTS

CITY           SKY/WX    TMP DP  RH WIND       PRES   REMARKS
SANTA BARBARA  MOCLDY    43  42  97 E3        30.16S
SANDBERG       CLEAR     43  23  45 S15       30.14R
LAS VEGAS NV   PTCLDY    38  24  57 CALM      30.14S
PHOENIX AZ     PTCLDY    46  40  79 CALM      30.14R
TIJUANA        MOCLDY    45  39  81 CALM      30.18S
ENSENADA NW      N/A     51  32  48 N6        30.16S

$$

OFFSHORE ISLANDS

CITY           SKY/WX    TMP DP  RH WIND       PRES   REMARKS
CATALINA ARPT  CLOUDY    48  47  96 SW8       30.17R FOG
SAN CLEMENTE I MOCLDY    54  48  82 SW7       30.20
SAN NICOLAS IS MOCLDY    52  46  80 S7        30.17R

$$

MARINE AND OFFSHORE BUOY REPORTS

STATION/POSITION SKY/WX   TEMP    WIND        PRES    VSBY  SWELL
                          AIR SEA DIR/SP/G                  HT/PER/DIR
                          (F)     (DEG/KT/KT) (MB)    (MI)  (FT/S/D)
TANNER BANKS               57 60  240/  8/ 12 1021.9R         5/280/15
S CLEMENTE BASIN           57 60  240/  6/  8 1021.4S         3/280/14
SAN NICOLAS IS.               59                N/A           5/300/15
SO. S. ROSA ISLA           55 57  190/  4/  6 1021.2R         5/290/15
W. S. BARBARA CH           55 58  190/  6/  8 1021.1S         7/280/15
M. S. BARBARA CH                  240/  2/  4 1022.0R
S. MONICA BASIN            56 59  260/  6/  8 1021.6R         3/260/14
S PEDRO CHANNEL               60                N/A           2/260/13
CMP PENDLETON NS              59                N/A           2/240/13
OCEANSIDE OFFSHR              60                N/A           2/240/14
TORREY PINES OTR              60                N/A           3/270/13
POINT LOMA SOUTH              60                N/A           3/270/13

$$





USA.gov is the U.S. government's official web portal to all federal, state and local government web resources and services.